User: anonymous   Login
Location: Oakhurst
(33.6448°N, 111.9543°W)
Time: 07:34:07
(UTC+00:00)
Language:

XW-2A - Orbit

View from above orbital plane
View from above orbital plane
View from above satellite
View from above satellite

Ground track
Ground track

The orbit data is extracted from the following two-line orbital elements,

1 40903U 15049E   21269.16499488  .00006206  00000-0  12809-3 0  9991
2 40903  97.2251 323.3331 0012154  16.2594  68.0890 15.46147942338358
Epoch (UTC): 26 September 2021 03:57:35
Eccentricity: 0.0012154
inclination: 97.2251°
perigee height: 420 km
apogee height: 436 km
right ascension of ascending node: 323.3331°
argument of perigee: 16.2594°
revolutions per day: 15.46147942
mean anomaly at epoch: 68.0890°
orbit number at epoch: 33835

The dashed part of the orbit path shows where the satellite is in the earth's shadow,  

DLR